Theta_e
291 287 285 285 287 285 283 282 284 283 285 283 282 282 281 281 282 284 284 286 287 285 285 286 286 285 285 284 285 284 282 281 280 280 280 280 280 280 280 280 280 280 280 282 282 282 282 282 282 282 281 281 281 281 281 281 282 283 284 284 284 285 286 286 286 286 285 285 285 286 286 285 286 286 287 288 288 288 289 289 290 290 290 290 290 290
288 286 285 287 288 286 283 282 284 284 283 284 282 281 281 280 280 285 285 286 285 285 281 281 282 284 286 285 285 283 281 280 280 280 280 280 280 281 280 280 279 280 281 282 281 281 280 280 281 280 280 283 280 281 281 281 282 282 283 283 284 284 285 285 285 285 285 285 285 285 284 284 284 285 285 285 286 287 288 288 289 289 288 288 288 289
284 286 291 289 288 283 283 284 285 284 284 283 282 280 280 282 281 285 284 285 286 285 283 282 281 284 285 286 285 282 282 283 283 282 282 281 280 280 280 279 279 279 279 279 280 281 279 280 280 279 279 279 280 280 280 281 282 282 282 283 283 284 284 285 285 285 284 285 285 284 284 284 284 285 285 285 285 286 286 286 287 287 287 288 287 288
288 284 287 287 283 286 284 284 284 284 284 282 281 281 280 281 281 280 282 283 284 284 282 283 283 284 286 286 286 284 283 282 282 282 281 281 281 281 280 279 279 278 278 279 279 279 278 278 278 278 278 279 279 280 280 281 281 282 283 282 282 283 283 284 285 286 285 285 285 284 284 284 284 283 285 284 284 285 284 284 285 286 286 287 287 287
289 290 287 284 285 286 285 284 284 282 281 280 282 280 281 281 282 281 281 282 283 283 282 282 282 280 283 284 283 279 282 280 280 281 280 281 281 281 281 280 279 279 279 278 279 278 278 277 277 278 279 278 279 279 279 281 281 283 281 282 282 282 283 283 285 284 284 284 283 283 283 283 283 283 282 282 282 282 283 283 283 284 285 285 285 285
285 286 286 286 285 285 285 284 283 283 280 278 281 284 284 283 282 282 281 281 279 279 278 279 277 275 276 280 282 278 279 280 280 279 279 280 280 280 279 279 279 280 278 278 278 279 278 277 277 277 278 278 278 279 280 280 281 281 281 281 282 282 282 282 283 283 283 282 281 281 280 279 279 279 279 279 279 280 280 280 282 282 283 283 283 284
286 286 287 286 286 285 285 282 282 284 280 281 284 283 284 283 282 281 280 281 276 274 279 280 276 275 277 278 281 277 278 279 278 279 280 280 280 279 279 278 279 278 278 278 278 277 277 277 277 277 277 277 278 279 280 280 281 281 281 281 281 281 282 283 282 282 283 281 281 280 280 279 279 278 279 280 280 280 280 281 280 281 282 282 282 282
285 286 283 284 286 285 283 282 282 285 281 280 282 280 281 282 281 280 281 280 278 279 280 280 278 274 275 280 282 280 278 278 278 278 279 279 279 278 278 278 278 277 277 277 277 277 277 277 277 277 278 277 278 279 279 280 281 280 280 280 280 281 282 281 281 281 282 280 280 280 279 280 279 278 278 279 279 280 281 280 280 280 280 281 282 283
285 283 284 284 283 282 282 282 283 285 283 280 282 281 282 280 280 280 280 278 277 276 275 278 279 275 274 276 277 277 276 277 277 278 279 279 279 278 278 278 277 277 277 277 276 276 276 277 277 277 277 278 278 279 279 280 280 280 280 281 280 280 280 280 280 281 280 281 280 279 279 278 279 279 279 279 280 279 279 278 278 279 279 280 282 283
286 286 284 286 284 284 283 281 283 286 284 284 281 282 281 281 280 280 278 278 276 274 273 278 278 273 278 276 275 276 276 277 279 279 279 279 279 278 278 277 277 276 276 276 276 276 276 276 277 277 277 277 278 279 280 280 280 280 279 280 280 279 279 280 279 279 279 279 280 278 278 278 277 278 278 278 277 277 278 277 277 278 278 279 280 280
286 290 290 287 285 285 282 283 283 285 284 283 281 281 278 279 278 277 276 275 271 268 276 279 278 278 275 276 277 275 278 280 281 279 280 280 279 277 277 277 277 277 276 276 276 276 276 276 276 277 276 277 278 278 279 279 279 279 279 279 278 278 279 279 278 279 278 278 278 278 278 277 277 277 277 276 276 276 276 276 276 277 277 278 278 279
284 286 286 284 287 284 283 283 283 282 283 282 280 279 280 282 275 272 269 273 270 271 274 276 277 278 271 275 277 281 279 280 282 280 279 279 279 278 277 276 276 276 276 276 275 276 276 276 276 276 276 276 277 278 278 278 278 279 278 278 278 278 278 278 278 278 278 278 278 278 277 277 277 277 276 275 275 275 275 275 275 276 276 277 278 278
282 282 283 286 289 286 283 283 282 281 281 281 279 277 275 271 271 269 270 270 268 274 275 272 275 274 274 281 279 280 282 281 280 282 281 280 279 277 276 276 276 275 275 275 275 275 275 275 275 275 276 276 276 277 277 278 278 278 278 278 277 278 278 278 277 277 277 277 277 277 277 277 277 277 276 275 275 276 275 275 275 275 275 276 276 276
282 280 283 284 286 287 285 283 280 282 281 280 280 277 275 271 266 270 271 268 269 274 275 274 277 273 279 279 282 284 282 282 281 281 281 280 279 277 276 276 275 275 275 275 275 274 274 275 275 275 275 276 276 277 277 277 278 277 278 277 277 277 278 277 277 277 277 277 277 277 277 276 276 275 276 275 275 276 276 276 275 275 275 275 275 276
275 276 282 284 284 285 286 286 283 280 279 280 280 281 279 274 273 274 273 274 278 277 273 275 271 270 271 277 276 275 276 276 278 278 277 278 277 276 275 275 275 274 274 274 274 274 275 275 275 275 275 276 276 276 276 276 276 277 277 277 277 277 277 277 277 277 277 277 277 276 276 276 276 275 275 275 276 276 275 275 275 275 276 275 275 275
280 279 279 284 282 285 284 284 282 281 281 279 279 279 275 277 280 277 277 272 275 272 274 270 273 275 278 277 277 275 275 275 275 275 277 275 275 275 274 274 274 274 274 274 274 274 274 274 274 275 275 276 275 276 276 276 276 276 276 276 276 276 277 277 277 277 277 276 276 276 276 276 276 276 276 276 276 275 275 275 275 275 275 275 275 275
280 277 280 283 281 284 283 281 284 284 279 279 279 277 280 281 282 277 273 274 272 273 273 274 275 279 278 276 273 276 275 274 274 274 275 275 274 274 274 274 274 274 274 274 274 274 274 274 275 275 275 275 275 276 275 276 276 276 276 276 276 276 276 276 277 276 276 276 275 275 275 275 275 274 274 274 274 274 275 275 275 275 275 275 275 275
280 280 281 280 283 281 279 281 280 280 282 280 275 280 281 282 280 276 272 272 271 270 275 271 276 279 276 278 273 274 274 273 273 273 274 274 274 273 274 274 274 274 274 274 274 274 274 275 275 275 275 275 275 275 275 275 276 276 276 275 275 276 275 276 276 275 275 275 275 275 275 275 274 274 274 274 274 274 274 274 275 275 275 275 275 275
283 279 280 278 280 281 281 282 282 281 282 280 279 283 281 276 273 275 270 270 271 272 273 278 276 278 279 280 274 273 273 274 273 273 273 273 273 274 274 274 274 274 273 273 273 274 275 275 275 275 275 275 275 275 275 275 276 275 275 275 275 275 275 275 276 275 275 275 275 275 274 274 274 274 274 274 274 274 274 274 274 274 275 275 275 275
283 279 279 278 278 280 279 280 277 279 281 280 282 279 280 277 279 274 276 275 278 274 275 276 278 278 277 278 280 279 276 276 274 273 273 274 274 274 274 274 274 273 274 274 274 275 275 275 274 274 274 274 274 274 275 275 275 275 275 275 275 276 275 275 274 274 274 274 274 274 274 274 274 274 274 274 274 274 274 274 274 274 274 274 275 274
282 281 274 278 278 279 277 279 279 279 277 276 277 276 276 276 278 278 276 275 277 274 274 274 273 280 280 280 280 281 278 277 275 274 275 275 274 274 274 274 274 274 274 274 275 275 274 274 274 274 274 274 274 275 275 274 274 274 274 274 274 274 274 274 274 273 273 273 273 273 273 273 273 273 274 274 274 274 274 274 275 274 274 274 274 274
279 278 279 275 275 276 279 281 283 282 283 279 278 277 279 276 274 273 274 277 276 277 273 273 273 282 281 279 281 280 280 278 277 276 276 274 274 274 274 274 274 274 274 274 274 274 274 274 274 274 274 274 274 274 273 274 274 274 274 274 274 274 273 273 273 273 272 273 273 272 272 272 273 273 273 273 273 273 274 274 274 274 274 273 273 273
283 277 277 275 276 280 280 280 279 280 280 280 280 280 281 280 279 276 273 276 274 276 277 275 273 278 280 280 279 280 279 278 277 277 275 274 274 274 274 274 274 274 274 274 274 274 274 274 274 274 274 273 273 273 273 273 273 273 273 273 273 272 272 272 272 272 272 272 272 272 272 272 272 272 272 272 273 273 273 273 273 274 273 272 272 272
289 275 273 279 278 277 277 277 278 278 279 279 278 277 278 278 281 281 281 279 275 276 273 274 271 276 277 279 277 277 276 276 277 276 275 274 274 274 274 273 273 273 274 274 274 274 274 273 273 273 273 273 273 272 272 272 272 272 272 272 272 272 272 272 272 272 271 271 271 271 271 271 272 272 272 272 272 272 273 273 273 273 272 272 272 271
279 279 278 273 271 277 276 275 277 276 277 274 275 278 280 282 281 279 278 279 274 278 275 275 272 278 281 278 277 275 275 275 275 275 275 274 274 274 274 274 274 274 274 273 273 274 273 273 272 273 272 272 272 272 272 272 272 271 271 271 271 271 271 271 271 271 271 270 270 270 270 270 271 271 271 271 272 272 272 272 272 272 272 271 271 270
283 280 279 272 273 272 272 270 271 271 276 275 275 276 279 278 279 276 275 276 273 277 278 275 275 282 279 276 275 275 274 274 274 274 274 275 274 274 274 274 274 274 274 273 273 273 273 273 273 272 272 272 272 271 271 271 271 271 271 271 271 270 270 271 271 270 270 269 269 269 269 269 270 270 270 270 271 271 272 271 271 271 271 271 270 270
277 279 281 283 280 279 282 283 281 279 274 274 275 276 277 278 280 280 279 276 274 278 277 278 279 280 282 277 275 275 275 274 274 274 274 274 274 274 274 274 274 274 274 273 273 273 272 272 272 272 271 271 271 271 270 270 270 269 269 269 270 270 270 269 269 269 268 268 268 267 268 268 269 269 269 270 270 271 271 271 270 270 269 270 269 268
275 278 281 282 284 285 286 286 284 282 281 281 279 277 277 277 278 278 276 275 281 276 273 280 282 280 281 283 278 276 276 275 274 274 274 274 274 274 274 274 276 273 273 273 273 272 272 272 272 271 271 271 270 270 270 269 269 269 269 268 269 269 269 269 268 268 267 267 267 267 267 268 268 268 269 269 270 270 270 270 269 269 268 268 268 268
280 281 285 281 281 284 286 286 283 280 280 282 283 283 277 277 277 276 277 280 281 277 276 282 284 281 282 284 282 281 278 277 275 275 275 275 274 274 273 274 274 273 273 272 272 272 272 271 271 270 270 270 270 269 268 268 268 268 268 268 268 268 268 268 267 267 266 266 266 266 267 267 268 268 268 269 269 269 268 268 267 267 266 266 266 267
280 280 284 282 283 284 283 283 283 281 281 281 282 282 281 278 277 278 279 281 280 280 281 282 282 281 284 285 283 282 281 279 277 276 275 274 273 274 273 273 273 273 273 273 272 272 271 271 270 270 270 269 268 267 267 267 267 267 267 267 267 267 267 267 266 266 265 265 265 266 266 267 267 267 268 268 267 267 266 266 266 265 265 265 265 266
284 282 286 281 280 281 283 282 281 281 281 280 282 282 282 282 282 281 280 281 281 280 280 280 279 279 284 284 284 281 279 276 275 274 274 274 274 274 273 273 273 273 273 273 272 271 271 270 270 269 269 268 267 267 266 267 267 267 267 267 267 266 267 266 265 265 265 265 265 266 266 266 266 267 266 266 266 266 265 265 264 264 264 264 265 265
283 278 278 279 279 280 282 280 279 279 278 278 278 279 280 281 279 281 279 282 280 278 279 278 276 277 282 281 282 278 276 275 274 274 274 274 274 274 273 273 273 273 273 272 271 270 270 270 269 269 268 267 267 266 266 266 266 266 266 266 266 266 266 265 265 264 264 265 265 265 265 265 266 265 265 264 264 264 263 263 263 263 263 264 264 265
282 279 278 278 277 278 278 277 276 276 276 276 277 280 280 280 282 283 283 283 282 282 278 275 277 282 283 277 277 275 276 275 275 275 274 274 274 274 274 273 273 273 273 271 270 270 270 269 269 268 267 266 266 266 266 266 265 265 265 265 265 265 264 264 264 264 264 264 264 265 265 265 265 264 263 263 263 263 262 262 262 262 262 263 264 265
280 281 280 282 276 275 272 274 275 274 272 275 283 285 283 280 280 279 280 281 282 282 280 282 283 284 281 277 278 276 275 275 276 276 277 276 274 274 274 274 274 273 272 271 270 269 269 269 268 268 267 266 266 266 266 266 265 265 265 265 265 264 264 263 263 264 263 264 264 264 264 264 263 262 261 261 261 261 261 261 261 261 262 263 264 265
281 281 279 281 276 272 273 274 272 270 274 281 276 279 281 283 282 281 281 282 282 282 282 281 282 282 283 282 278 278 277 277 277 276 276 276 276 275 274 274 273 272 271 270 269 270 269 268 267 267 266 266 266 266 265 264 265 265 264 264 263 263 263 263 263 263 263 264 264 263 263 262 261 261 260 260 260 260 260 260 261 261 262 263 264 264
280 280 279 278 275 273 269 272 268 272 281 282 277 277 281 279 279 278 277 280 281 281 282 280 282 283 283 283 278 278 277 275 275 275 276 276 276 275 274 274 273 272 271 271 270 269 268 267 267 266 266 266 265 264 264 264 264 263 263 263 263 262 263 263 262 263 263 263 263 262 262 261 260 260 259 259 259 259 259 260 260 260 262 263 264 265
284 282 280 276 280 274 274 273 275 281 279 282 283 277 277 277 276 277 275 280 283 281 281 281 281 282 282 279 276 275 275 275 274 274 275 275 275 276 275 274 273 272 271 271 270 268 268 267 266 266 265 264 264 264 263 264 263 262 262 262 262 262 262 262 262 262 262 261 261 261 261 260 259 258 258 258 258 258 259 260 260 261 263 263 264 265
285 282 282 280 277 281 275 273 273 274 272 278 280 279 279 281 280 279 277 276 281 280 281 281 280 281 279 274 275 274 275 273 270 274 275 274 275 274 273 273 272 271 270 269 268 268 267 267 266 266 265 263 263 264 264 263 262 261 261 261 261 261 261 261 261 261 261 260 260 260 260 259 258 258 258 258 258 258 259 260 262 262 264 264 265 265
283 284 283 282 278 276 274 272 273 272 276 283 276 277 278 278 279 276 273 273 280 280 280 281 280 280 277 274 274 275 274 270 272 275 276 274 274 273 272 271 271 270 269 268 267 266 266 265 265 264 264 263 262 263 263 262 261 261 260 260 261 261 260 260 260 260 260 259 259 259 258 258 257 257 257 257 258 259 259 261 262 263 265 265 265 266
280 279 279 276 277 277 276 274 272 277 277 277 277 277 277 278 280 277 271 274 278 277 278 279 279 278 276 276 275 275 274 271 274 276 275 274 274 272 272 270 269 268 267 267 266 266 265 265 264 263 263 262 262 263 262 261 261 260 260 260 260 259 259 259 259 259 259 259 258 258 257 257 257 257 257 257 258 259 261 263 263 263 263 264 265 265
276 275 279 274 277 277 278 275 277 277 283 278 276 277 278 279 279 269 270 282 278 277 276 278 279 278 277 275 276 274 277 277 276 276 275 274 272 271 271 270 269 268 267 267 267 267 264 264 263 263 262 263 263 262 261 261 260 259 259 259 259 258 259 259 259 259 258 257 257 256 256 257 257 257 258 259 259 261 262 262 262 262 263 263 264 264
274 276 274 277 275 275 276 274 275 278 283 279 279 278 280 279 269 273 282 280 278 277 277 279 278 278 277 277 276 278 275 273 275 275 274 273 272 270 269 268 268 267 267 267 267 264 263 263 262 262 262 262 262 261 261 260 258 258 258 258 257 258 259 258 258 257 256 256 256 256 256 256 257 258 258 259 261 261 260 261 261 262 262 262 263 263
276 274 272 274 276 275 275 272 271 269 280 282 279 277 281 278 280 282 277 277 279 279 278 278 278 277 278 277 278 275 273 273 274 274 273 272 270 269 267 267 266 266 265 264 263 264 263 262 261 261 261 262 261 261 261 259 257 257 257 256 257 258 258 257 257 256 255 255 255 255 256 256 257 258 259 260 261 260 259 260 261 261 262 262 262 262
282 274 273 276 280 271 273 270 271 280 281 282 280 276 279 284 285 279 281 278 278 278 278 278 277 278 278 278 276 274 274 273 273 273 272 271 270 269 269 268 267 266 264 264 263 262 262 261 261 260 260 260 260 260 259 258 256 256 256 256 257 258 257 256 255 255 254 254 254 255 256 257 257 258 259 260 260 259 259 259 260 261 261 261 261 262
284 281 281 278 281 276 275 279 284 280 281 282 284 286 283 285 280 280 282 280 278 278 278 279 278 277 278 278 277 275 273 274 273 273 272 271 270 268 267 266 266 265 263 262 262 262 261 260 259 259 258 259 259 259 258 258 256 255 254 256 257 256 255 255 254 253 253 253 254 255 256 256 257 258 259 259 259 259 259 259 260 259 260 260 261 261
285 287 283 283 281 285 286 287 281 279 280 281 283 281 281 282 279 281 281 279 279 279 278 278 279 278 278 278 276 275 275 275 273 272 272 270 269 268 266 265 264 263 262 261 261 261 259 258 257 256 256 258 258 258 258 257 256 254 255 256 256 255 254 253 252 252 253 253 254 255 256 256 257 258 259 259 259 259 259 259 259 259 259 260 260 260
283 284 284 283 283 281 278 287 285 283 280 281 282 282 280 282 280 280 280 280 280 279 279 280 279 278 278 278 277 276 276 275 273 273 271 269 268 266 265 264 263 262 260 260 261 259 258 256 256 255 255 255 257 257 257 255 256 256 256 255 255 254 253 252 252 252 253 253 254 255 255 256 257 258 258 258 259 259 259 259 259 259 259 259 259 259
281 286 282 284 283 282 284 286 284 286 283 282 282 281 281 279 280 280 280 281 281 280 280 280 279 278 278 277 278 277 276 275 274 272 270 269 267 266 264 263 261 261 260 260 259 258 256 256 255 255 255 255 257 257 256 255 255 255 254 254 254 253 252 251 252 252 252 252 254 254 255 256 259 258 257 257 258 258 259 259 259 259 259 259 259 259
286 284 279 283 281 284 287 284 279 282 282 281 281 282 283 282 281 280 280 280 280 280 279 278 280 278 278 278 278 277 275 274 274 272 270 268 266 265 264 262 261 260 260 259 258 257 256 255 255 255 255 256 257 256 254 253 254 254 254 254 253 252 251 251 252 252 252 253 253 254 255 256 256 256 257 257 258 259 259 258 259 260 260 261 262 263
283 281 283 282 279 280 281 284 283 278 280 282 281 282 283 282 281 280 280 279 279 279 278 277 277 278 279 279 278 277 275 274 272 271 269 267 266 263 262 261 259 259 259 258 257 256 255 255 254 254 254 255 256 254 253 253 253 253 254 253 252 252 250 250 251 251 251 252 253 253 254 255 255 256 256 257 257 258 258 262 265 263 261 261 266 268
285 286 284 281 282 281 286 288 287 287 287 288 285 284 283 283 281 279 279 279 279 279 278 278 276 275 276 276 278 277 275 273 271 270 267 266 264 263 261 259 258 258 258 257 255 254 254 255 254 254 253 254 254 253 252 252 252 252 252 253 252 252 250 250 250 250 251 252 252 254 255 255 255 256 256 257 257 258 257 257 259 264 266 266 267 267
Wind_Speed
1 1 3 6 7 6 4 4 4 3 5 2 1 2 7 5 9 6 4 6 1 1 10 11 9 8 9 9 11 11 8 7 7 11 11 9 9 8 7 7 7 6 7 5 5 3 2 1 1 1 2 3 5 5 5 4 4 4 6 6 8 7 8 9 9 9 9 10 10 9 9 11 11 12 12 11 12 13 13 15 15 14 12 14 16 16
3 2 6 7 8 7 6 3 1 1 2 2 1 3 8 3 9 8 3 1 1 3 6 2 5 9 12 8 9 8 9 14 14 14 13 12 11 9 9 8 8 7 2 2 4 3 2 3 4 4 4 5 6 5 4 4 4 4 5 6 6 5 7 7 8 7 7 7 7 9 10 10 10 10 11 13 11 12 13 13 14 14 14 15 14 14
2 5 10 6 4 3 1 1 2 3 1 1 2 1 4 9 5 12 4 1 0 1 10 6 5 9 10 11 6 13 17 16 17 18 17 16 14 10 8 8 8 5 5 4 5 1 2 3 4 4 4 4 2 3 3 3 4 4 4 4 3 4 5 6 6 7 7 6 7 8 9 10 10 8 8 10 12 12 12 14 14 15 15 16 15 15
7 4 7 2 6 3 0 1 2 1 0 2 1 1 9 3 3 9 3 3 3 1 5 6 11 9 11 11 14 11 15 9 8 9 8 12 14 12 11 10 9 8 6 5 3 1 2 2 2 4 4 3 3 2 3 3 4 2 3 3 3 4 4 5 6 6 6 7 8 7 8 9 8 10 11 10 9 10 13 14 14 13 13 15 15 15
9 5 1 6 2 4 3 0 2 1 6 3 4 4 6 7 7 7 5 4 5 5 3 9 12 6 12 15 10 1 2 3 5 5 6 8 6 7 6 6 7 10 7 5 3 1 1 2 2 2 3 3 3 3 3 4 3 3 3 3 3 4 4 4 5 6 6 8 9 9 9 7 9 8 10 12 13 12 11 12 11 13 14 15 16 17
10 3 3 4 1 1 3 2 5 5 4 4 6 11 10 7 8 6 3 5 4 5 2 4 11 2 3 7 10 2 2 9 5 11 13 12 8 7 9 9 7 5 4 6 4 1 0 1 3 3 3 3 3 3 3 3 4 3 3 3 3 3 3 4 4 6 7 8 9 11 12 14 12 12 10 10 14 16 17 15 14 14 14 12 13 14
4 2 1 4 4 2 2 4 4 5 4 0 8 3 8 7 4 4 4 4 5 4 2 2 3 14 1 5 7 5 7 12 4 11 13 10 10 9 9 8 8 7 4 1 1 1 1 1 1 3 3 3 3 4 3 4 4 4 3 3 2 2 3 3 3 5 7 8 7 7 8 8 10 13 12 10 9 9 12 13 16 13 14 14 15 16
2 0 4 2 3 3 2 4 4 9 5 5 1 2 4 2 4 2 0 3 8 0 5 2 4 11 13 11 9 8 11 12 10 12 12 12 11 11 9 8 8 6 6 5 4 3 1 0 1 3 3 3 4 4 4 4 4 4 4 4 4 3 3 3 3 5 5 6 6 7 7 7 8 9 13 14 12 10 10 12 15 14 12 13 13 15
3 3 2 2 1 2 7 5 4 8 6 4 2 3 1 3 3 1 2 5 2 4 12 4 4 4 9 4 3 4 7 10 16 15 15 14 13 11 9 9 7 6 6 6 5 3 1 1 1 3 3 4 3 3 4 4 5 4 4 5 4 4 3 3 3 4 4 5 6 6 6 8 8 8 10 10 12 13 11 14 13 14 15 12 12 12
3 3 7 8 5 7 5 4 6 10 4 1 3 1 1 0 1 2 3 2 2 2 14 11 8 4 19 5 0 1 4 12 15 19 18 16 15 11 10 8 6 5 5 4 4 2 2 2 3 2 3 3 3 3 4 5 5 4 4 4 5 5 2 3 3 3 4 4 4 6 7 9 11 10 10 8 10 11 11 15 13 14 13 12 11 11
2 2 4 5 5 5 4 0 2 1 1 2 3 2 2 2 3 2 3 1 2 4 17 7 12 11 12 5 10 9 12 13 14 5 7 11 11 10 10 9 7 7 6 5 4 3 3 3 2 1 3 4 4 4 5 6 5 5 4 5 6 6 4 2 2 2 4 3 3 4 6 9 11 12 11 11 12 10 11 12 16 13 11 13 13 10
3 1 0 2 3 3 4 4 4 1 0 3 2 2 4 8 4 1 3 3 1 10 5 4 10 12 10 7 6 11 4 4 10 11 17 19 19 14 11 8 7 6 6 5 3 1 1 2 3 2 4 4 5 5 6 6 5 6 6 5 6 6 4 3 3 3 4 3 3 4 6 8 9 10 10 12 13 12 14 14 14 12 12 11 10 11
2 6 2 4 3 9 2 3 1 5 3 3 2 2 2 6 6 4 1 2 6 10 2 2 3 5 15 18 3 9 14 10 5 9 15 18 15 12 10 9 7 6 4 5 3 2 0 1 2 3 4 4 5 6 7 7 6 7 6 6 6 8 5 4 3 4 4 4 4 5 6 7 7 8 9 12 13 13 12 13 15 12 13 12 12 14
8 1 2 3 2 4 7 6 2 1 1 4 3 3 1 3 1 7 5 3 6 5 3 3 2 10 9 10 11 17 9 7 6 9 9 11 16 16 11 8 6 6 5 4 3 2 2 2 2 2 3 4 6 7 8 7 7 7 7 6 5 8 6 5 4 4 5 4 4 4 6 7 7 9 9 10 12 13 12 12 14 15 16 14 18 16
2 6 5 8 4 3 7 7 8 6 7 8 2 7 7 5 2 8 3 9 13 11 2 3 2 8 1 7 3 6 8 6 3 2 3 7 9 9 7 7 6 5 4 4 3 3 3 2 2 3 4 5 6 7 8 7 7 7 7 6 7 9 7 5 6 6 7 7 5 4 6 7 7 9 9 10 10 12 14 14 15 15 15 16 14 18
9 6 4 1 2 4 7 2 4 6 3 2 2 4 4 9 5 9 6 6 8 9 12 4 9 4 8 2 0 0 2 4 3 4 8 9 8 8 8 7 7 6 5 4 4 3 3 2 2 3 5 6 6 8 8 7 7 7 7 7 7 8 9 8 8 6 6 7 6 6 8 8 9 8 9 11 10 11 12 16 14 16 17 13 15 14
1 6 1 1 1 1 2 3 1 2 3 2 5 5 8 1 6 5 4 0 2 1 17 1 11 9 5 3 1 4 4 2 2 3 6 8 6 6 7 7 6 6 5 4 4 3 3 3 4 5 5 6 7 7 7 8 8 8 9 8 9 9 8 8 8 9 8 8 8 9 8 9 9 10 11 12 14 14 15 14 16 14 14 17 15 15
4 7 1 5 4 2 0 1 2 3 3 7 2 8 2 3 3 2 4 2 2 6 12 2 13 19 3 15 3 2 3 3 3 5 4 5 6 8 7 7 6 6 5 4 3 3 3 4 5 6 6 6 6 6 7 8 7 7 6 7 8 9 9 9 8 8 8 10 10 10 10 9 9 10 12 12 13 14 14 15 15 13 16 14 15 16
4 8 3 3 1 1 3 2 2 1 2 4 4 1 5 3 1 0 3 7 6 7 9 8 5 19 13 12 1 7 9 11 9 7 7 9 10 10 8 7 6 4 3 3 3 4 5 5 6 6 5 5 5 6 7 7 7 7 6 5 6 9 9 10 8 8 8 8 9 9 10 11 11 10 11 11 12 14 14 17 15 16 16 16 17 15
1 4 4 1 1 1 1 4 7 3 1 2 0 1 1 1 7 3 7 2 2 14 7 12 1 22 5 7 10 12 16 15 12 9 13 15 12 11 8 8 7 6 5 5 5 5 6 7 6 4 4 5 5 6 7 7 6 7 6 6 7 8 8 9 10 11 11 11 10 12 11 11 10 11 11 12 13 14 17 15 18 16 16 18 15 18
2 2 6 0 3 2 3 5 9 11 8 2 1 3 1 2 2 1 1 5 7 7 9 11 12 19 5 6 8 10 14 15 17 18 15 12 11 9 9 9 8 7 6 6 6 7 7 5 3 3 3 4 5 6 6 5 7 6 5 6 6 9 11 11 10 10 11 11 12 13 14 14 12 13 12 14 14 15 14 18 16 16 17 13 18 16
0 3 10 3 1 6 8 2 7 9 13 11 12 11 14 7 5 3 12 4 5 7 8 8 14 22 2 2 7 4 8 12 13 16 14 10 11 11 9 8 8 7 7 8 7 4 3 3 3 3 3 3 5 6 6 6 6 6 6 7 7 8 8 10 11 10 11 11 12 13 14 14 13 13 14 16 15 16 20 15 15 18 15 20 17 17
6 3 2 6 9 12 4 3 2 1 2 3 7 10 10 7 4 6 12 6 0 8 1 3 6 24 8 3 5 7 7 12 14 14 12 11 12 11 10 9 8 8 7 7 4 2 3 3 3 3 4 4 6 6 6 6 6 7 7 8 7 9 11 9 11 11 11 12 12 13 14 14 14 14 16 17 17 19 15 19 19 13 19 15 17 17
7 2 1 8 3 2 1 2 3 3 2 1 6 2 4 11 15 15 12 2 5 2 3 6 11 13 4 2 1 0 2 3 8 12 14 11 9 9 10 8 8 6 5 3 2 3 4 3 2 3 4 4 5 5 5 5 6 6 7 8 8 10 11 11 11 11 11 12 14 14 14 15 14 17 17 17 15 16 21 18 15 19 15 17 15 17
2 5 4 5 5 7 2 3 3 1 2 5 5 8 13 8 5 1 5 3 3 14 8 8 21 19 1 2 4 3 4 7 9 5 9 11 8 8 8 7 6 6 4 3 5 5 3 3 3 4 4 4 5 5 5 6 6 7 8 8 9 10 9 10 11 11 12 12 15 15 14 15 16 18 19 19 18 21 18 16 19 13 19 16 18 18
5 5 8 5 9 10 12 4 5 5 11 5 3 4 7 13 12 4 6 6 14 4 12 15 19 18 5 0 2 2 4 3 2 4 4 7 12 10 8 8 8 6 6 5 5 4 5 4 3 3 4 5 5 5 5 6 6 7 8 9 8 10 11 10 10 11 12 13 14 15 16 16 17 18 19 19 19 18 19 20 14 19 15 16 21 21
3 2 7 12 12 16 17 12 1 5 3 6 8 12 12 12 13 11 4 7 16 11 13 25 18 23 26 5 4 7 7 10 10 8 11 9 8 9 8 8 8 7 6 6 6 5 3 3 5 4 5 6 4 4 5 6 7 7 8 9 8 9 10 11 11 11 12 13 14 14 15 15 17 18 18 19 19 19 18 14 18 16 17 18 18 18
2 3 11 13 18 20 18 17 9 7 12 12 11 9 10 11 12 14 16 21 13 4 19 24 14 19 31 15 11 11 10 9 9 12 11 8 10 11 10 8 6 5 6 5 4 5 6 5 5 6 6 5 4 5 5 5 6 7 8 10 10 9 9 9 11 13 13 13 14 14 15 16 17 17 18 17 19 18 15 18 17 17 17 15 18 18
6 11 13 7 16 18 18 15 4 4 7 13 17 13 9 13 13 21 23 23 17 13 24 29 20 20 26 17 7 14 15 16 16 17 17 14 11 8 8 9 9 8 7 7 7 6 6 7 8 7 4 4 4 6 7 7 7 8 8 8 9 10 10 10 11 13 14 14 14 15 14 16 16 16 17 17 17 15 19 15 15 18 17 16 16 16
2 9 9 8 16 15 14 12 8 9 9 13 21 15 6 14 21 21 20 24 22 23 28 26 26 31 30 16 7 10 12 12 12 9 7 10 13 12 12 11 10 9 8 9 8 8 8 9 7 5 3 4 4 5 8 9 9 8 10 11 10 10 10 10 12 12 14 14 14 14 14 15 16 16 17 18 17 19 16 16 19 16 16 17 16 17
7 11 7 3 8 14 14 6 6 8 9 19 25 14 12 19 15 18 21 25 22 21 27 27 28 31 28 11 11 5 7 5 8 13 15 13 13 14 13 12 10 10 10 9 9 10 8 6 5 3 2 2 4 6 6 7 8 9 10 10 11 11 11 10 12 13 12 14 14 14 15 14 14 16 19 16 17 16 17 17 15 16 17 16 16 16
7 5 5 2 6 13 5 2 1 2 6 15 24 21 19 18 18 21 18 24 18 24 25 21 18 23 25 8 8 7 9 13 15 14 13 12 14 14 14 12 11 12 11 11 10 7 5 5 5 1 2 5 5 5 6 8 9 10 10 11 12 12 11 12 12 13 14 13 14 14 15 14 16 17 15 16 16 15 15 16 16 16 16 17 17 15
9 5 4 4 8 14 0 5 4 1 7 17 25 26 22 24 25 20 19 21 22 19 14 16 23 23 15 5 6 6 11 11 12 14 13 11 13 15 15 14 13 11 11 9 7 6 6 4 2 1 2 2 4 6 6 7 9 10 10 12 12 11 12 12 12 13 14 14 14 14 14 16 17 16 16 15 15 16 16 15 15 16 16 17 16 15
4 7 7 6 7 2 4 3 4 1 10 24 2 5 16 20 21 22 25 27 23 15 18 20 22 18 6 7 9 9 10 11 14 15 18 19 16 15 11 11 11 10 8 7 7 7 4 3 2 1 1 2 3 5 6 6 8 9 9 10 11 11 12 13 14 13 14 14 14 14 15 15 16 16 16 15 15 16 16 15 16 16 15 16 16 16
12 11 7 4 3 4 3 5 1 8 24 2 1 2 7 13 14 21 25 25 18 16 21 22 24 22 22 13 9 8 11 9 10 12 10 11 15 14 15 12 11 10 9 8 7 6 5 4 2 1 2 2 4 5 6 7 7 9 10 10 12 11 12 12 13 14 14 15 15 15 16 17 15 15 15 16 16 16 16 16 17 17 15 15 15 15
11 11 5 3 3 3 3 5 3 20 10 8 5 5 2 2 4 2 16 23 21 20 18 19 25 25 20 16 5 7 9 6 4 4 10 10 11 13 12 12 11 10 10 8 8 6 5 4 3 2 2 2 4 5 6 7 8 10 11 10 11 11 11 12 12 13 13 15 15 16 15 15 18 17 18 18 16 15 16 16 16 17 17 16 15 14
12 7 7 7 6 10 8 11 20 12 22 30 19 6 8 9 9 11 14 22 16 10 18 18 23 22 16 6 7 5 8 7 5 4 3 9 8 9 13 11 11 10 7 6 7 6 4 5 5 3 2 2 4 5 5 6 8 9 11 11 10 10 11 11 12 13 14 15 16 16 16 16 17 17 17 16 16 16 16 17 18 16 14 15 15 14
9 15 10 11 9 12 10 9 4 7 13 24 4 2 5 5 5 5 2 17 8 9 12 17 19 19 8 6 7 10 9 7 3 9 8 7 7 9 4 6 5 6 6 7 6 6 5 6 5 2 0 2 3 3 5 6 8 9 10 11 11 11 12 12 13 13 14 15 14 14 16 16 16 17 17 16 17 18 16 15 13 14 15 15 15 16
2 1 4 15 5 6 6 9 10 11 18 12 6 4 3 6 9 6 3 17 7 15 13 15 16 11 9 12 10 11 9 8 12 9 11 11 9 9 11 8 8 8 6 5 7 6 6 5 3 2 0 1 3 6 6 7 8 9 10 11 12 11 12 12 14 14 15 17 16 16 16 15 15 16 17 17 17 16 17 16 14 13 13 14 15 16
7 6 6 7 11 10 11 8 11 9 16 3 8 3 6 10 7 3 6 18 3 11 8 11 12 9 11 12 15 12 12 10 15 9 13 14 14 11 12 12 9 8 7 6 5 6 6 5 3 1 3 4 5 5 6 6 8 9 10 11 11 12 12 13 14 14 15 15 15 15 14 14 16 16 15 18 18 16 15 14 15 16 17 16 14 15
8 2 9 18 17 16 14 9 7 10 14 9 10 8 8 5 7 3 11 20 10 10 8 10 13 11 13 14 14 12 14 6 3 10 16 13 11 8 6 8 7 8 8 7 7 7 5 4 4 3 3 3 4 5 6 6 8 9 9 11 11 12 13 14 14 15 15 15 15 15 15 14 14 17 16 15 15 14 14 14 15 17 16 16 15 15
3 4 3 5 9 13 12 12 14 13 12 10 10 18 12 8 3 18 13 6 13 10 9 11 11 11 14 17 15 11 5 6 8 13 16 16 14 12 11 10 8 7 5 8 8 7 5 4 3 3 3 3 6 5 5 6 8 9 10 10 11 13 13 14 14 14 15 15 15 15 15 15 15 14 13 14 13 15 15 14 15 15 15 14 15 17
15 12 12 13 6 3 2 9 2 11 9 26 16 7 10 9 17 6 5 1 4 11 10 7 9 10 13 12 10 8 10 9 13 16 16 14 14 14 12 11 10 9 8 6 6 5 5 4 3 3 3 5 5 6 6 5 8 9 9 11 12 12 13 13 14 14 14 15 14 14 15 14 15 15 12 12 13 15 16 15 14 15 14 14 15 15
11 8 6 8 9 9 12 13 14 17 7 24 24 17 17 26 10 8 9 7 4 5 8 7 6 10 12 12 11 9 10 11 8 13 12 11 11 11 10 8 7 8 8 7 7 6 4 5 3 3 3 5 4 4 5 5 7 9 11 12 11 12 12 12 13 13 14 14 13 14 14 14 14 13 12 13 13 13 15 15 14 14 13 13 14 13
17 17 15 15 13 12 13 17 20 5 15 22 22 17 20 24 5 9 8 10 10 7 4 8 9 8 11 12 12 14 10 11 16 16 18 15 14 12 10 10 9 8 8 7 6 6 4 5 3 4 3 4 4 4 3 4 6 9 10 11 11 11 13 13 13 13 13 13 13 14 13 13 13 13 11 12 12 13 13 14 14 14 12 12 12 12
2 14 5 4 8 16 14 14 5 2 10 18 17 2 1 6 4 6 9 8 7 9 9 9 9 11 9 10 13 8 13 13 13 12 10 13 13 10 9 9 8 7 7 7 6 5 4 5 4 4 4 5 3 3 3 4 5 7 10 10 10 11 12 13 14 13 14 13 12 13 13 15 13 11 11 12 11 12 11 13 13 12 12 11 11 12
5 5 8 10 2 8 14 23 19 18 8 16 19 10 2 5 9 8 7 9 7 9 9 6 10 11 13 12 15 15 11 14 15 13 12 12 12 11 10 10 9 8 9 8 6 5 4 4 5 4 3 3 3 2 4 3 5 5 8 9 10 11 11 12 12 12 12 13 13 12 12 13 12 13 12 11 11 11 11 11 12 12 12 11 12 12
6 11 8 17 13 14 24 12 5 11 14 17 15 14 15 8 10 7 6 7 10 10 12 10 6 9 11 12 13 13 13 13 15 13 12 12 13 12 11 9 10 9 7 8 7 6 5 5 4 2 1 2 3 3 3 4 5 5 7 8 8 9 10 11 11 11 12 13 12 11 12 12 16 15 11 11 11 11 12 12 12 12 12 12 12 11
5 14 12 14 12 17 24 12 5 4 6 10 13 14 15 13 12 9 7 8 9 11 7 4 8 11 12 14 11 12 13 12 14 16 14 11 12 12 12 11 10 10 10 9 6 6 5 4 3 0 1 2 2 3 3 4 4 5 8 8 7 8 9 10 11 11 11 11 10 11 11 11 11 11 12 12 11 10 11 12 13 13 11 12 11 11
8 15 6 8 10 17 22 23 12 8 10 13 18 23 18 13 12 12 9 9 11 12 11 11 5 4 10 11 13 13 15 12 9 13 14 13 14 15 12 11 10 10 9 8 7 6 4 4 3 1 1 2 2 3 3 4 4 5 6 6 7 8 8 10 10 9 9 10 10 10 11 10 11 11 11 11 11 12 12 16 21 16 13 11 21 27
19 20 13 15 17 22 23 20 15 17 18 13 14 17 14 12 14 16 17 16 13 13 14 13 11 7 6 5 6 13 13 14 13 11 12 11 11 11 12 13 12 10 9 8 8 5 4 3 1 1 0 0 1 3 3 4 4 5 7 7 8 8 8 8 8 8 8 10 9 12 11 10 11 11 11 11 12 11 13 13 15 20 23 25 27 26
Wind_Direction
105 64 276 267 249 219 218 185 192 207 173 195 140 186 251 233 278 276 265 261 171 243 243 240 237 250 254 222 205 192 172 202 196 205 207 205 202 206 203 200 201 206 208 209 220 242 256 352 306 307 338 343 355 8 354 345 347 5 9 13 15 2 2 8 5 3 356 351 345 348 343 335 334 329 327 326 328 324 321 319 317 319 322 323 321 316
70 18 267 224 225 195 205 198 151 74 153 178 188 224 282 212 258 268 283 320 321 169 288 264 233 252 252 243 210 173 171 207 201 207 206 202 205 205 198 197 200 209 251 245 264 269 324 348 343 351 10 13 11 339 333 346 334 2 9 24 4 2 6 11 7 355 351 355 350 337 333 330 327 330 329 326 324 319 315 317 322 322 319 314 311 312
1 251 263 244 212 143 92 145 174 189 205 141 208 245 322 272 240 281 298 271 311 53 262 276 243 256 261 256 216 181 195 208 206 201 201 190 196 201 199 198 198 208 222 227 236 268 313 332 345 7 0 343 288 287 312 325 346 358 9 359 1 4 13 5 1 356 352 344 343 340 326 330 322 318 315 314 316 315 318 322 320 315 314 315 312 310
337 286 253 231 138 134 38 85 125 94 102 185 138 261 251 238 11 304 301 358 318 184 277 283 271 259 263 257 241 200 200 216 208 207 203 198 194 194 197 191 188 202 206 215 205 230 301 330 323 354 345 306 297 311 326 340 340 340 343 345 5 17 13 5 354 354 345 337 330 327 323 323 322 319 316 310 306 313 319 318 318 312 315 315 312 314
230 233 129 112 115 159 220 132 137 181 271 273 201 222 264 278 247 208 273 321 293 291 245 284 275 245 221 244 251 33 207 195 202 195 215 223 224 206 204 206 195 196 201 199 208 262 332 343 328 303 286 289 323 317 317 334 328 327 317 335 8 16 11 355 347 350 342 339 340 338 330 326 323 322 326 326 324 323 315 308 311 314 315 313 312 310
278 269 124 110 100 123 147 223 208 152 255 313 237 203 230 245 271 280 328 12 357 316 335 41 319 257 297 241 253 213 192 225 197 195 210 209 207 207 206 200 208 219 201 175 176 164 200 250 292 320 318 329 311 306 297 293 287 302 307 330 1 11 1 352 351 354 351 350 344 343 342 338 335 326 329 327 324 325 323 322 315 308 309 305 301 299
222 345 124 172 155 165 188 207 241 151 193 69 270 194 226 240 235 273 311 16 285 252 282 60 243 288 181 259 232 188 202 224 196 212 214 203 205 206 202 194 198 197 199 219 156 201 231 270 314 309 304 292 292 290 296 297 291 300 306 325 348 358 342 335 349 353 350 347 347 339 330 324 322 319 313 312 307 303 307 309 309 307 307 307 307 299
128 22 60 65 118 157 185 262 243 162 122 238 239 103 113 137 234 243 19 195 256 308 286 234 167 271 284 242 243 194 203 219 217 223 218 207 206 207 200 199 200 192 176 172 175 197 212 256 231 284 282 285 276 290 306 299 303 305 303 322 334 338 340 336 352 349 355 338 332 330 322 313 310 309 304 312 311 306 304 303 304 306 300 301 297 289
141 192 190 158 144 163 213 215 187 159 154 220 233 157 176 213 233 205 234 266 257 359 288 240 143 273 252 273 18 121 209 238 235 220 215 210 211 205 203 203 205 189 181 170 173 192 199 239 259 252 274 279 289 300 298 302 296 291 305 321 314 317 320 320 337 337 332 332 324 316 310 311 301 299 298 301 303 306 307 302 301 301 301 296 295 302
282 175 204 166 147 225 225 234 164 162 220 293 159 153 13 83 187 209 249 257 332 49 273 255 175 211 274 184 56 332 258 252 236 221 212 206 208 198 200 207 201 183 179 191 180 177 210 222 235 240 258 282 291 295 298 295 292 297 307 296 292 292 274 282 308 312 319 322 319 311 311 306 307 307 302 297 298 303 307 303 299 304 299 301 298 295
221 333 156 131 199 209 150 110 158 148 96 115 78 15 4 10 29 38 57 90 39 255 250 235 180 181 280 191 186 161 214 210 228 220 195 210 216 204 202 193 186 176 179 183 186 213 222 230 232 276 307 296 311 311 305 293 290 297 287 269 275 272 260 255 283 303 310 313 288 293 299 302 303 305 303 305 302 300 301 302 304 301 298 298 296 295
339 43 138 257 92 106 107 93 11 53 106 106 40 56 343 315 8 31 340 62 111 265 264 212 188 196 218 281 222 230 260 218 199 191 194 202 204 195 193 191 184 179 178 178 184 231 259 333 337 354 328 315 302 306 289 282 287 279 268 268 279 289 287 290 297 311 306 292 277 274 288 293 294 297 300 300 300 302 302 301 299 298 296 292 293 294
289 207 234 330 207 129 110 88 342 20 15 72 63 38 34 287 15 319 22 303 187 238 235 91 123 302 229 247 248 254 248 249 212 204 201 202 191 184 188 182 181 180 179 186 197 216 245 265 280 314 314 311 299 282 281 285 283 277 280 282 293 302 311 309 310 308 301 294 280 283 287 286 287 286 290 292 294 299 299 302 300 299 298 301 301 302
280 274 302 267 35 221 129 143 219 315 209 105 147 143 63 322 2 277 252 233 293 272 249 88 67 258 277 280 233 246 255 264 220 223 215 185 178 183 176 172 174 189 189 193 190 206 224 233 264 295 283 277 274 274 281 283 279 284 289 295 297 299 307 306 304 295 297 296 289 281 279 283 285 286 286 287 291 298 300 300 296 297 297 298 298 301
323 332 268 160 234 166 179 188 180 164 158 200 130 142 190 159 208 283 293 285 287 289 278 244 57 233 154 236 303 275 282 295 255 205 142 145 159 155 149 159 178 186 207 193 201 212 217 238 253 269 264 258 263 275 276 272 277 288 299 311 309 306 311 312 309 313 314 310 302 283 273 276 279 284 288 288 287 294 304 301 295 290 293 293 295 295
208 222 251 266 292 157 177 213 123 103 62 174 169 73 90 226 140 231 226 245 294 324 301 156 213 193 216 131 17 285 10 19 38 92 127 135 142 150 154 171 183 196 194 200 209 240 253 247 266 260 257 258 264 262 267 273 287 303 311 312 307 306 312 315 315 315 311 306 298 291 289 285 281 280 284 288 289 292 296 296 289 291 288 287 289 289
15 256 270 321 83 175 200 144 248 117 182 225 110 204 216 150 161 276 341 228 45 41 259 153 279 252 310 187 350 25 63 26 61 122 140 150 152 154 171 181 193 196 199 198 211 222 261 282 257 247 253 261 255 264 273 290 306 314 314 313 311 312 314 315 318 319 317 308 303 298 291 286 285 286 287 288 292 295 294 291 293 287 286 288 285 289
204 258 256 126 205 266 261 158 51 27 167 107 205 235 143 117 100 127 247 330 199 228 272 146 267 284 96 291 70 12 220 212 211 179 171 163 166 178 188 187 194 197 203 203 212 226 236 244 251 257 255 252 268 272 284 299 309 307 303 304 309 312 315 317 319 317 313 312 308 301 297 292 286 287 287 288 291 294 293 292 290 287 289 285 289 288
122 296 230 292 193 92 12 131 338 313 60 159 190 263 112 251 290 17 87 282 277 247 272 264 278 263 236 250 141 228 210 213 201 199 183 195 193 193 188 194 202 202 178 195 229 236 244 244 243 247 261 281 272 273 285 296 302 302 303 302 302 307 311 312 313 308 304 303 300 299 298 297 295 288 286 285 286 288 287 287 286 291 288 291 289 289
73 220 302 307 33 268 43 121 203 236 345 39 79 316 274 106 232 169 195 223 126 275 293 278 100 277 142 208 205 220 203 205 181 190 210 205 192 187 184 187 191 189 192 201 219 230 234 241 242 263 291 293 291 298 297 298 303 306 311 313 312 308 309 311 314 314 310 308 302 299 296 291 286 287 287 287 289 289 290 287 294 291 295 291 294 290
203 122 261 230 299 114 199 181 212 165 182 178 201 261 355 221 224 66 331 169 213 265 255 286 291 272 206 191 190 214 201 197 178 195 206 201 188 189 185 182 184 187 189 203 217 228 235 252 293 304 284 281 285 281 289 296 303 303 306 308 310 310 311 312 309 307 305 308 305 304 302 299 295 290 288 287 286 285 283 288 285 294 291 294 292 292
114 168 220 116 290 225 240 233 204 182 189 182 174 204 198 179 249 237 256 94 231 224 253 240 268 271 192 184 198 204 216 195 192 194 200 182 183 188 189 186 181 182 194 206 218 229 264 304 291 281 279 274 279 285 293 303 304 315 319 315 313 308 306 308 310 308 306 305 301 300 300 299 298 294 292 291 286 291 295 286 290 290 291 292 291 291
165 135 145 214 195 221 221 276 305 273 327 234 168 228 184 200 162 205 263 231 324 238 254 294 304 274 131 152 203 204 189 193 185 192 196 178 185 188 184 181 189 184 192 206 221 246 265 255 252 255 263 272 281 287 298 306 311 309 310 313 311 309 306 308 304 306 305 303 302 300 299 299 298 297 293 292 291 289 287 297 290 291 292 286 292 290
79 126 262 273 321 39 69 340 3 36 76 340 258 191 137 202 196 208 231 150 201 217 156 243 239 251 55 23 320 349 303 241 183 191 178 176 179 183 177 182 185 187 215 214 244 255 245 246 256 256 267 279 278 290 299 299 299 305 308 311 312 310 309 308 307 305 305 303 301 302 302 302 302 300 297 292 289 288 297 291 290 292 282 288 286 291
125 252 155 284 346 323 336 355 318 309 52 231 217 206 211 220 219 279 76 117 266 232 174 214 253 268 66 356 48 76 122 156 182 189 168 168 183 177 181 180 185 193 190 217 236 243 258 256 253 255 262 271 275 282 292 298 305 310 310 313 313 307 304 305 305 306 306 305 304 305 305 304 305 300 297 293 292 289 287 296 294 288 291 286 288 290
178 185 143 196 230 263 270 235 233 235 216 219 240 214 213 202 209 121 244 218 240 212 186 233 252 266 241 353 132 137 153 155 202 176 198 180 170 177 182 186 188 182 203 214 234 250 249 248 255 266 267 267 270 276 292 299 307 312 308 305 304 303 306 306 307 305 308 308 308 309 310 308 305 302 299 297 296 293 293 294 294 298 290 288 291 292
176 189 192 206 207 233 245 261 291 125 89 211 228 204 206 206 206 210 228 235 235 241 241 245 246 275 269 185 223 197 196 184 179 190 186 185 189 181 178 180 183 193 202 212 220 231 257 264 260 259 258 259 265 281 297 309 313 309 304 302 305 307 308 310 310 308 307 309 308 307 307 306 304 301 299 295 292 297 295 292 300 299 298 294 288 289
75 225 231 219 227 236 242 250 240 165 239 244 238 219 195 193 190 197 210 233 230 260 257 259 236 249 266 255 211 208 209 207 195 188 188 186 185 181 179 178 184 195 219 221 229 231 241 257 259 249 251 262 283 303 306 307 305 307 309 310 311 311 311 311 313 312 313 313 311 308 306 306 302 301 296 294 299 294 293 298 298 298 297 294 291 290
163 222 234 186 240 245 244 252 207 222 235 255 257 251 179 193 189 207 222 235 233 225 249 265 267 255 261 264 213 213 199 202 192 192 193 180 167 165 166 176 191 203 213 215 223 226 232 241 238 245 259 284 313 322 322 322 324 319 313 308 309 313 314 313 312 312 311 311 308 306 305 304 304 300 297 295 291 294 298 296 298 300 299 296 292 289
127 241 247 187 243 245 250 250 239 231 257 266 259 250 209 199 212 219 233 240 230 239 249 262 270 268 267 270 247 221 208 195 197 176 146 160 177 174 175 185 193 202 208 215 219 220 225 229 239 253 276 319 327 332 331 327 322 321 316 314 316 314 312 316 310 309 310 307 306 304 302 299 298 300 302 303 303 304 303 302 303 300 295 293 291 288
164 255 210 162 248 261 257 232 231 237 251 263 264 258 235 243 237 232 240 252 250 251 256 256 261 268 269 260 252 209 184 126 128 166 179 179 174 178 182 188 194 200 208 214 214 218 222 230 244 258 254 316 348 337 329 315 313 314 312 313 316 314 314 316 310 309 307 305 304 304 303 302 303 306 305 303 304 303 305 303 302 300 297 292 289 287
179 264 66 104 245 263 276 129 319 14 300 270 273 265 244 243 247 240 232 239 230 239 245 255 261 260 267 272 223 182 155 161 171 176 176 184 183 178 185 190 192 201 206 209 211 212 222 234 233 221 14 348 340 335 327 322 319 317 316 318 315 314 315 313 310 308 306 303 305 306 308 309 312 309 308 308 304 305 306 304 303 300 297 294 290 283
193 153 171 174 218 250 103 83 87 331 294 278 254 247 232 228 230 240 243 242 232 228 243 245 245 247 257 140 197 182 176 183 171 178 183 180 184 185 185 187 193 200 206 202 203 212 214 220 193 100 12 350 338 327 324 321 315 315 318 314 310 311 312 312 310 308 307 308 308 309 312 315 314 311 310 310 310 308 307 304 301 300 297 293 289 286
147 175 217 145 212 238 55 74 116 62 278 252 343 174 185 216 217 229 242 241 234 198 224 229 245 258 255 209 206 197 185 191 187 197 182 175 181 189 186 188 191 196 201 197 199 203 208 189 177 136 71 350 326 318 313 313 304 304 307 304 308 314 313 313 311 309 307 308 310 314 315 317 316 314 313 311 309 309 307 304 302 300 295 293 290 284
181 195 204 143 188 214 114 78 110 248 250 325 252 320 204 201 204 214 237 246 242 226 233 248 257 257 251 242 212 189 193 198 200 176 180 190 173 170 176 181 187 190 195 195 195 198 184 182 172 129 58 15 336 323 319 316 316 315 314 318 316 314 310 309 308 309 309 311 314 317 321 319 315 309 311 312 312 309 306 303 302 301 299 295 285 283
184 175 156 194 130 52 115 186 187 242 273 288 203 187 180 150 218 259 269 263 249 238 226 230 246 251 253 251 211 185 179 161 118 171 177 171 161 160 166 179 187 187 191 194 178 174 171 167 139 80 42 2 327 323 320 321 327 323 315 316 309 308 308 307 307 307 312 315 317 319 319 318 316 318 317 313 312 309 306 304 301 302 301 290 282 274
171 157 156 216 150 219 193 207 234 326 321 289 275 201 155 199 174 186 252 274 261 196 217 225 242 251 251 239 157 122 109 107 125 202 201 163 169 172 168 176 177 184 178 167 151 156 152 128 102 77 57 324 314 314 324 330 330 320 314 312 309 308 309 312 312 314 317 318 319 320 321 322 319 315 313 313 310 308 307 306 304 296 290 286 281 279
175 185 198 206 222 210 226 244 282 270 262 268 254 225 188 190 157 163 205 281 251 178 200 209 230 244 236 137 136 133 135 104 194 226 190 186 167 156 145 145 145 148 148 141 136 143 125 106 86 84 102 293 282 330 341 338 326 319 313 312 314 318 320 318 316 318 317 314 316 318 321 320 318 315 312 311 309 307 304 300 291 290 291 289 295 298
316 3 166 202 214 143 200 228 233 236 248 244 128 191 168 129 133 114 70 271 258 175 201 201 219 226 170 154 153 148 135 194 227 210 171 169 167 157 149 154 150 153 147 150 152 135 118 102 110 168 174 232 337 354 350 337 328 322 319 319 322 324 319 319 319 321 321 321 323 321 319 316 315 313 311 309 307 306 304 304 299 296 304 306 304 302
167 182 139 202 219 210 208 217 236 214 254 207 163 158 175 140 121 80 352 270 200 183 187 191 208 187 172 159 155 167 166 206 227 205 160 165 162 157 158 157 155 151 139 131 124 118 116 127 132 99 29 16 354 353 344 339 333 328 323 323 323 320 320 321 320 318 319 317 319 319 317 315 313 311 311 308 306 304 303 312 317 316 311 307 306 304
181 187 194 206 212 219 214 241 289 279 254 163 170 151 158 147 99 102 230 254 152 186 193 177 201 176 160 160 166 179 212 207 151 133 148 140 136 145 148 147 137 145 149 145 126 110 106 93 71 42 18 5 359 359 346 345 339 330 325 321 321 319 319 319 319 321 321 319 316 316 314 314 312 310 308 304 301 305 313 317 315 312 310 310 309 308
253 163 322 263 227 218 206 221 235 264 260 142 170 157 158 111 171 227 244 112 150 182 195 185 182 172 165 173 185 198 139 119 112 124 139 156 157 150 143 137 128 127 131 120 112 102 94 86 66 33 18 19 7 3 350 350 337 325 327 324 319 319 318 321 323 322 320 317 316 315 315 313 312 307 306 305 308 316 314 313 311 308 311 310 309 310
180 166 195 203 187 46 142 225 256 260 257 148 144 132 189 169 233 207 96 196 151 175 173 196 174 181 169 184 183 132 130 130 141 149 151 148 147 151 149 151 154 156 138 118 92 88 103 101 79 38 21 4 8 3 349 351 336 330 328 322 317 321 320 321 322 322 319 316 315 318 315 314 313 313 311 312 316 315 314 315 313 312 313 313 313 312
160 161 191 214 168 170 188 201 213 219 133 150 146 183 189 214 206 138 148 171 207 163 176 163 192 178 184 168 154 151 148 138 136 145 142 144 142 142 147 139 134 121 113 108 115 118 113 102 78 44 27 10 5 353 352 349 340 331 327 318 322 322 321 320 322 320 318 317 318 317 317 316 315 313 313 317 317 315 314 317 318 318 318 318 316 317
188 201 180 192 184 169 197 215 226 120 161 178 185 199 195 203 136 177 146 166 159 211 179 169 184 185 181 169 157 151 153 167 159 162 158 165 157 154 146 152 143 132 123 119 115 103 86 88 62 45 27 9 360 340 355 355 347 328 321 320 326 323 325 324 323 323 319 320 319 319 317 317 316 315 318 321 318 318 317 316 323 320 320 317 320 320
173 209 45 45 216 228 258 250 75 218 189 193 214 203 164 182 185 157 157 148 188 167 173 175 186 177 177 161 146 173 166 167 154 163 152 150 148 144 120 114 109 107 110 115 111 107 105 91 72 54 14 349 347 338 354 0 345 327 318 323 326 326 325 324 324 323 323 321 320 319 319 319 319 319 324 323 319 316 316 317 320 320 319 322 319 322
216 179 177 227 188 161 247 243 218 223 179 202 208 216 291 210 182 176 170 163 167 163 178 199 169 176 168 168 168 170 171 161 160 159 152 146 146 138 139 133 134 134 135 125 125 116 92 86 68 49 13 331 329 347 355 350 336 322 320 324 326 328 325 323 322 321 321 322 320 320 323 324 325 329 328 326 321 319 322 324 321 319 319 321 323 319
255 176 176 224 208 192 243 248 269 211 191 201 200 203 221 203 192 196 169 164 162 172 178 184 164 165 161 173 180 164 164 165 153 155 155 154 150 150 145 135 135 130 125 122 117 113 109 99 98 64 337 303 311 354 349 338 325 325 322 323 329 326 326 323 326 325 322 321 322 323 326 325 328 329 326 329 327 329 329 329 324 324 326 326 322 309
146 123 212 200 209 235 256 249 101 57 242 223 216 217 212 195 183 177 163 156 152 159 168 157 175 167 173 184 168 157 151 173 163 158 153 146 147 147 151 142 139 133 134 126 119 114 114 120 107 139 250 287 329 357 333 327 320 326 330 329 330 330 330 325 325 322 319 321 324 325 326 327 328 330 328 325 326 328 332 325 327 327 321 323 313 319
126 205 193 112 207 235 231 233 152 202 232 223 213 214 209 187 172 171 164 164 167 166 164 161 174 187 184 174 164 158 160 162 159 150 151 154 153 139 135 135 134 130 124 118 114 116 108 118 126 166 259 298 357 345 331 326 322 324 327 328 335 335 331 327 324 324 325 326 326 325 328 332 331 333 329 329 327 331 328 329 334 335 334 332 339 339
197 206 175 192 202 230 235 238 200 210 231 233 210 206 195 179 173 174 184 182 180 171 164 159 154 156 169 193 184 159 156 156 158 147 137 143 148 148 142 139 138 136 129 126 120 118 125 127 141 161 243 318 352 343 326 321 317 325 332 339 339 337 329 324 324 322 323 327 329 328 332 330 332 332 329 329 329 334 333 331 334 343 350 350 348 346